Location: Frizzleburg
(41.0764°N, 80.4548°W)
Time: 20:58:16
(UTC+00:00)

Cosmos 1408 - Pass Details

Date: 17 November 2019
Orbit: 470 x 497 km, 82.6° (Epoch: 10 December)

Event Time Altitude Azimuth Distance (km) Brightness Sun altitude
Rises 11:23:25 0° 214° (SW) 2,565 6.1 -9.3°
Reaches altitude 10° 11:25:48 10° 229° (SW) 1,685 5.0 -8.9°
Maximum altitude 11:28:51 24° 284° (WNW) 1,055 3.7 -8.3°
Drops below altitude 10° 11:31:54 10° 340° (NNW) 1,685 4.9 -7.8°
Sets 11:34:18 0° 355° (N) 2,566 6.0 -7.4°
